Location: Great Malvern
(52.1167°N, 2.3167°W)
Time: 02:24:18
(UTC+00:00)

Cosmos 1782 Rocket - Pass Details

Date: 18 September 2020
Orbit: 607 x 632 km, 82.5° (Epoch: 22 October)

Event Time Altitude Azimuth Distance (km) Brightness Sun altitude
Rises 18:43:24 0° 172° (S) 2,886 6.8 -5.0°
Reaches altitude 10° 18:45:39 10° 167° (SSE) 1,989 5.9 -5.3°
Maximum altitude 18:49:53 47° 94° (E) 832 3.8 -6.0°
Drops below altitude 10° 18:54:11 10° 21° (NNE) 2,019 6.1 -6.6°
Sets 18:56:29 0° 15° (NNE) 2,934 7.0 -7.0°
